[[{"header":{"parameterUnit":"m.s-1","parameterCategory":1,"la1":30.2991,"la2":30.254,"lo1":-89.0895,"lo2":-89.0444,"dy":0.0017,"dx":0.0017,"nx":28,"ny":28,"refTime":"2023-11-03T21:00:00:Z","depth":0,"parameterNumber":2,"parameterNumberName":"U-component_of_WINDS"},"data":[0,0,0,0,0,0,0,0,0,0,0,0,0,0,0,0,0,0,0,0,0,0,0,0,0,0,0,0,0,0,0,0,0,0,0,0,0,0,0,0,0,0,0,0,0,0,0,0,0,0,0,0,0,0,0,0,0,0,-2.8908,-2.8909,0,-2.8974,-2.8975,-2.8976,-2.8865,-2.8862,-2.8858,-2.8854,-2.8924,-2.8929,-2.8935,0,0,0,0,0,0,0,0,0,0,0,0,0,-2.8687,-2.8691,-2.8908,-2.8909,-2.8909,-2.8974,-2.8975,-2.8976,-2.8866,-2.8862,-2.8857,-2.8853,-2.8922,-2.8929,-2.8935,0,0,0,0,0,0,0,0,0,0,0,0,0,-2.8771,-2.8693,-2.8908,-2.8862,-2.8859,-2.8974,-2.8975,-2.8976,-2.8867,-2.8861,-2.8856,-2.8851,-2.892,-2.8928,-2.8936,-2.9099,0,0,-2.8961,-2.8964,0,0,0,0,0,0,0,0,-2.8766,-2.8779,-2.8868,-2.8866,-2.8862,-2.8906,-2.8923,-2.9018,-2.8869,-2.8864,-2.8854,-2.8848,-2.8923,-2.893,-2.8955,-2.9102,-2.9105,-2.8961,-2.8966,-2.897,-2.8972,0,0,0,0,0,0,0,-2.8761,-2.8776,-2.8934,-2.887,-2.8866,-2.8839,-2.8845,-2.894,-2.8924,-2.8864,-2.8856,-2.8865,-2.892,-2.8948,-2.8956,-2.9106,-2.8961,-2.8968,-2.8973,-2.8976,-2.9392,-2.9398,0,0,0,0,0,0,-2.876,-2.8772,-2.8932,-2.8936,-2.8799,-2.8848,-2.8854,-2.8898,-2.8923,-2.8921,-2.887,-2.886,-2.8937,-2.8947,-2.8958,-2.9152,-2.897,-2.8977,-2.8982,-2.9386,-2.9393,-2.94,0,0,0,0,0,0,-2.8756,-2.8776,-2.8929,-2.8852,-2.8869,-2.8858,-2.8907,-2.8902,-2.8929,-2.8928,-2.8924,-2.8902,-2.8933,-2.8947,-2.9065,-2.9153,-2.8981,-2.8988,-2.9378,-2.9388,-2.9396,-2.9541,0,0,0,0,0,0,-2.875,-2.8775,-2.8836,-2.8854,-2.8874,-2.9035,-2.8913,-2.8907,-2.8943,-2.8931,-2.8956,-2.8955,-2.8929,-2.9054,-2.9073,-2.9161,-2.8994,-2.937,-2.9383,-2.9393,-2.9528,-2.9554,-2.9576,0,0,0,0,0,-2.8742,-2.8874,-2.884,-2.886,-2.8951,-2.9041,-2.9052,-2.902,-2.8951,-2.9013,-2.9012,-2.8954,-2.914,-2.9067,-2.9088,-2.9179,-2.9365,-2.9379,-2.9393,-2.9518,-2.9549,-2.9575,0,0,0,0,0,0,-2.8868,-2.8876,-2.8838,-2.8979,-2.901,-2.9022,-2.9099,-2.9053,-2.9105,-2.9091,-2.9048,-2.9055,-2.9183,-2.9192,-2.9111,-2.9339,-2.9241,-2.926,-2.9329,-2.9358,-2.9382,-2.9378,-2.9001,0,0,0,0,0,-2.8912,-2.8984,-2.8987,-2.9111,-2.9129,-2.9112,-2.915,-2.9122,-2.9152,-2.9165,-2.9172,-2.9205,-2.927,-2.9314,-2.9374,-2.9528,-2.9533,-2.9601,-2.9625,-2.9645,-2.9663,-2.9746,-2.9777,-2.9446,-2.9445,-2.9445,0,0,-2.9004,-2.9017,-2.9065,-2.9137,-2.9157,-2.9234,-2.9123,-2.9208,-2.9265,-2.9178,-2.9291,-2.9297,-2.933,-2.9468,-2.9528,-2.9479,-2.9755,-2.9663,-2.9678,-2.9685,-2.9764,-2.9795,-2.9823,-2.9455,-2.9453,-2.9452,0,0,-2.9211,-2.9227,-2.9334,-2.9356,-2.9389,-2.9376,-2.9402,-2.9421,-2.9422,-2.9534,-2.9471,-2.9537,-2.965,-2.9677,-2.9705,-2.9922,-2.9872,-2.9943,-3.0069,-3.0151,-3.0177,-3.02,-3.028,-3.0309,-2.996,-2.996,-2.996,0,-2.9321,-2.9434,-2.9394,-2.9484,-2.9518,-2.9442,-2.955,-2.9574,-2.9625,-2.965,-2.9594,-2.9735,-2.9752,-2.9896,-2.9949,-2.9973,-3.0002,-2.9941,-3.0176,-3.0199,-3.022,-3.0296,-3.0325,-2.9969,-2.9968,-2.9967,-2.9966,0,-2.9569,-2.9648,-2.9729,-2.9781,-2.9823,-2.9922,-2.9898,-2.9947,-2.9915,-2.9909,-3.0024,-3.0041,-3.0104,-3.0135,-3.0105,-3.0275,-3.0244,-3.0183,-3.0084,-3.0261,-3.0331,-3.036,-2.9981,-2.9978,-2.9976,-2.9973,0,0,-2.9859,-2.9886,-2.9917,-2.994,-2.997,-3.0031,-3.0126,-3.0187,-3.023,-3.0267,-3.0347,-3.0444,-3.0388,-3.042,-3.0392,-3.0464,-3.0638,-3.0394,-3.0394,-3.0441,-3.0828,-3.0877,-3.0911,-3.0603,-3.0608,-3.0612,-3.0827,0,-3.0067,-3.0231,-3.0199,-3.036,-3.0433,-3.0361,-3.0444,-3.0472,-3.0469,-3.053,-3.0526,-3.0597,-3.0516,-3.0535,-3.0603,-3.0602,-3.0715,-3.0586,-3.0679,-3.0683,-3.0676,-3.0947,-3.0998,-3.1199,-3.0853,-3.0858,-3.0861,0,-3.0332,-3.038,-3.0548,-3.0567,-3.0597,-3.0672,-3.0726,-3.0785,-3.0816,-3.0808,-3.0844,-3.0802,-3.0898,-3.0796,-3.0927,-3.084,-3.0876,-3.0881,-3.0888,-3.0898,-3.0785,-3.0967,-3.1263,-3.1294,-3.0904,-3.09,-3.0897,0,-3.053,-3.0636,-3.0751,-3.0772,-3.0796,-3.0851,-3.0864,-3.0888,-3.0927,-3.0974,-3.0999,-3.1057,-3.1089,-3.1135,-3.111,-3.1037,-3.1247,-3.1142,-3.1245,-3.1246,-3.1295,-3.1293,-3.1604,-3.1314,-3.1313,-3.1312,-3.1312,0,-3.0768,-3.0875,-3.084,-3.0912,-3.1029,-3.099,-3.1108,-3.1112,-3.1134,-3.1205,-3.1145,-3.1213,-3.1175,-3.124,-3.1221,-3.1334,-3.1349,-3.1346,-3.1341,-3.1354,-3.1354,-3.1379,-3.1365,-3.132,-3.1319,-3.1317,-3.1316,0,-3.101,-3.0991,-3.1112,-3.1125,-3.1131,-3.1217,-3.1228,-3.1295,-3.1286,-3.1377,-3.1396,-3.1383,-3.1457,-3.1436,-3.1516,-3.1503,-3.1647,-3.1622,-3.1638,-3.1633,-3.1738,-3.173,-3.2078,-3.2122,-3.1801,-3.1804,-3.1806,0,-3.1165,-3.1245,-3.1266,-3.131,-3.1327,-3.1397,-3.1437,-3.1401,-3.1445,-3.1485,-3.1548,-3.1616,-3.1669,-3.1791,-3.1789,-3.185,-3.1828,-3.1945,-3.1837,-3.1848,-3.1833,-3.1829,-3.1838,-3.1968,-3.1972,-3.1975,-3.1977,0,-3.1441,-3.1428,-3.1487,-3.1544,-3.1593,-3.1635,-3.1673,-3.1711,-3.1678,-3.173,-3.1805,-3.1846,-3.1928,-3.1998,-3.2053,-3.2066,-3.2018,-3.2011,-3.2038,-3.2054,-3.2061,-3.2061,-3.17,-3.2004,-3.2001,-3.1999,-3.1998,-3.1997,-3.1646,-3.1715,-3.1741,-3.1809,-3.1833,-3.187,-3.1934,-3.1933,-3.1994,-3.2058,-3.2032,-3.2119,-3.2147,-3.2217,-3.2237,-3.2305,-3.226,-3.23,-3.231,-3.2321,-3.2336,-3.2048,-3.2315,-3.2314,-3.2313,-3.2312,-3.2312,0,-3.1922,-3.1935,-3.1998,-3.2053,-3.2107,-3.2054,-3.2092,-3.2141,-3.2218,-3.2248,-3.2301,-3.2388,-3.2455,-3.2458,-3.2521,-3.2575,-3.2554,-3.2593,-3.259,-3.2594,-3.2371,-3.2342,-3.2609,-3.2609,-3.2608,-3.2608,-3.2608,-3.2608,-3.2073,-3.2187,-3.2177,-3.2303,-3.2314,-3.2399,-3.2426,-3.2459,-3.2483,-3.2582,-3.2638,-3.2638,-3.2658,-3.2722,-3.2782,-3.278,-3.2808,-3.2856,-3.2847,-3.2639,-3.261,-3.2582,-3.2555,-3.2861,-3.2862,-3.3065,-3.3067,-3.3068]},{"header":{"parameterUnit":"m.s-1","parameterCategory":1,"la1":30.2991,"la2":30.254,"lo1":-89.0895,"lo2":-89.0444,"dy":0.0017,"dx":0.0017,"nx":28,"ny":28,"refTime":"2023-11-03T21:00:00:Z","depth":0,"parameterNumber":3,"parameterNumberName":"V-component_of_WINDS"},"data":[0,0,0,0,0,0,0,0,0,0,0,0,0,0,0,0,0,0,0,0,0,0,0,0,0,0,0,0,0,0,0,0,0,0,0,0,0,0,0,0,0,0,0,0,0,0,0,0,0,0,0,0,0,0,0,0,0,0,-2.9176,-2.9176,0,-2.9177,-2.9177,-2.9177,-2.9136,-2.9135,-2.9134,-2.9133,-2.9133,-2.9134,-2.9135,0,0,0,0,0,0,0,0,0,0,0,0,0,-2.9136,-2.9137,-2.9176,-2.9176,-2.9176,-2.9177,-2.9177,-2.9177,-2.9136,-2.9135,-2.9134,-2.9133,-2.9133,-2.9134,-2.9135,0,0,0,0,0,0,0,0,0,0,0,0,0,-2.9147,-2.9137,-2.9176,-2.9156,-2.9154,-2.9177,-2.9177,-2.9177,-2.9137,-2.9135,-2.9133,-2.9132,-2.9133,-2.9134,-2.9136,-2.9178,0,0,-2.914,-2.9141,0,0,0,0,0,0,0,0,-2.9146,-2.9148,-2.9159,-2.9157,-2.9155,-2.9155,-2.9163,-2.9177,-2.9137,-2.9143,-2.9133,-2.9131,-2.9142,-2.9142,-2.9146,-2.9178,-2.9178,-2.914,-2.9141,-2.9142,-2.9142,0,0,0,0,0,0,0,-2.9145,-2.9148,-2.9176,-2.9159,-2.9157,-2.9146,-2.9146,-2.9166,-2.9152,-2.9143,-2.914,-2.914,-2.914,-2.9145,-2.9146,-2.9178,-2.914,-2.9142,-2.9143,-2.9143,-2.9241,-2.9243,0,0,0,0,0,0,-2.9148,-2.9148,-2.9176,-2.9176,-2.9147,-2.9148,-2.9148,-2.9157,-2.9151,-2.9149,-2.9142,-2.9138,-2.9143,-2.9144,-2.9146,-2.9193,-2.9142,-2.9143,-2.9144,-2.9239,-2.9241,-2.9243,0,0,0,0,0,0,-2.9147,-2.9151,-2.9176,-2.9161,-2.9164,-2.915,-2.9161,-2.9158,-2.9162,-2.9151,-2.9148,-2.9149,-2.9142,-2.9144,-2.917,-2.9192,-2.9144,-2.9146,-2.9237,-2.924,-2.9242,-2.9288,0,0,0,0,0,0,-2.9146,-2.9151,-2.9167,-2.9162,-2.9165,-2.9201,-2.9162,-2.9159,-2.9165,-2.916,-2.9157,-2.9154,-2.9141,-2.9167,-2.9171,-2.9193,-2.9147,-2.9235,-2.9239,-2.9242,-2.9285,-2.9292,-2.9298,0,0,0,0,0,-2.9145,-2.9181,-2.9168,-2.9172,-2.9185,-2.9202,-2.9204,-2.9187,-2.9167,-2.9183,-2.9175,-2.9155,-2.9189,-2.9171,-2.9174,-2.9197,-2.9234,-2.9238,-2.9241,-2.9282,-2.9291,-2.9298,0,0,0,0,0,0,-2.9189,-2.918,-2.9166,-2.9201,-2.9203,-2.9195,-2.9215,-2.9198,-2.9205,-2.9201,-2.918,-2.918,-2.9208,-2.9206,-2.9185,-2.9236,-2.9208,-2.9212,-2.9237,-2.9246,-2.9252,-2.9252,-2.9148,0,0,0,0,0,-2.9203,-2.9219,-2.9209,-2.9241,-2.9243,-2.9229,-2.9236,-2.9223,-2.9224,-2.9224,-2.9218,-2.922,-2.923,-2.9238,-2.9248,-2.9284,-2.9282,-2.9302,-2.9309,-2.9315,-2.9318,-2.9335,-2.9343,-2.9256,-2.9256,-2.9256,0,0,-2.9232,-2.9229,-2.924,-2.925,-2.925,-2.9265,-2.923,-2.9248,-2.9258,-2.9227,-2.925,-2.9246,-2.9246,-2.9277,-2.929,-2.9275,-2.9342,-2.9319,-2.9324,-2.9325,-2.934,-2.9348,-2.9356,-2.9258,-2.9258,-2.9257,0,0,-2.9292,-2.9292,-2.9318,-2.9318,-2.9318,-2.9308,-2.9314,-2.9309,-2.9305,-2.9328,-2.9304,-2.9316,-2.9336,-2.9336,-2.9338,-2.9396,-2.9377,-2.94,-2.9436,-2.9452,-2.9459,-2.9465,-2.9484,-2.9491,-2.9404,-2.9404,-2.9404,0,-2.9328,-2.9351,-2.9333,-2.9352,-2.9356,-2.9328,-2.9352,-2.9353,-2.9356,-2.9359,-2.9343,-2.9366,-2.9364,-2.9393,-2.9407,-2.9411,-2.9416,-2.94,-2.946,-2.9465,-2.9471,-2.9488,-2.9495,-2.9407,-2.9407,-2.9406,-2.9406,0,-2.9394,-2.941,-2.943,-2.9433,-2.9439,-2.9462,-2.9446,-2.9454,-2.9441,-2.9432,-2.9455,-2.9452,-2.9459,-2.9465,-2.9452,-2.9492,-2.9482,-2.9463,-2.9434,-2.9482,-2.9498,-2.9505,-2.9411,-2.941,-2.9409,-2.9408,0,0,-2.9483,-2.9474,-2.9482,-2.9481,-2.9478,-2.949,-2.9509,-2.9516,-2.9523,-2.9526,-2.9541,-2.9557,-2.9539,-2.9542,-2.9529,-2.9543,-2.9587,-2.9522,-2.9521,-2.9532,-2.9627,-2.9641,-2.9649,-2.9574,-2.9575,-2.9576,-2.9627,0,-2.9539,-2.9573,-2.9556,-2.9591,-2.9604,-2.9576,-2.9593,-2.9592,-2.9585,-2.9594,-2.9586,-2.9597,-2.9573,-2.9574,-2.9587,-2.9579,-2.9605,-2.9575,-2.9586,-2.9587,-2.9586,-2.9658,-2.9672,-2.972,-2.9633,-2.9634,-2.9635,0,-2.961,-2.9615,-2.9651,-2.9643,-2.9648,-2.9663,-2.9667,-2.9677,-2.9675,-2.9668,-2.967,-2.9653,-2.967,-2.9642,-2.9664,-2.9644,-2.9648,-2.9644,-2.9645,-2.9645,-2.9613,-2.9657,-2.9735,-2.9742,-2.9645,-2.9644,-2.9644,0,-2.9669,-2.9684,-2.9707,-2.9708,-2.97,-2.9711,-2.9708,-2.9704,-2.9709,-2.9712,-2.9714,-2.972,-2.9722,-2.9727,-2.971,-2.9692,-2.9734,-2.9705,-2.9728,-2.9728,-2.9737,-2.9736,-2.9815,-2.9742,-2.9742,-2.9742,-2.9742,0,-2.9733,-2.9755,-2.9733,-2.9747,-2.977,-2.9751,-2.9775,-2.9769,-2.9765,-2.9777,-2.9754,-2.9765,-2.9743,-2.9752,-2.974,-2.9759,-2.9761,-2.9755,-2.9751,-2.9756,-2.9756,-2.9757,-2.9752,-2.9744,-2.9744,-2.9743,-2.9743,0,-2.9802,-2.9788,-2.981,-2.9801,-2.9798,-2.9816,-2.9807,-2.9819,-2.9809,-2.9824,-2.9826,-2.9811,-2.9819,-2.9804,-2.9811,-2.9802,-2.9829,-2.9821,-2.9829,-2.9826,-2.9849,-2.9846,-2.9929,-2.9938,-2.9862,-2.9863,-2.9863,0,-2.9843,-2.986,-2.9851,-2.9856,-2.9855,-2.9865,-2.9869,-2.985,-2.9854,-2.9852,-2.9864,-2.987,-2.9874,-2.9889,-2.9878,-2.9883,-2.9874,-2.9902,-2.9874,-2.9878,-2.9872,-2.987,-2.9871,-2.9908,-2.9909,-2.9909,-2.991,0,-2.9917,-2.9908,-2.9915,-2.9919,-2.9924,-2.9926,-2.9926,-2.9932,-2.9912,-2.9918,-2.9927,-2.993,-2.9936,-2.9942,-2.9944,-2.994,-2.9921,-2.9919,-2.9924,-2.9929,-2.9932,-2.9928,-2.9843,-2.9917,-2.9916,-2.9916,-2.9915,-2.9915,-2.9972,-2.9984,-2.9979,-2.9987,-2.9985,-2.9985,-2.9995,-2.9986,-2.9992,-2.9996,-2.9984,-2.9994,-2.999,-2.999,-2.9988,-2.9995,-2.9982,-2.999,-2.9992,-2.9994,-2.9996,-2.9932,-2.9996,-2.9995,-2.9995,-2.9995,-2.9995,0,-3.0042,-3.0037,-3.0045,-3.0045,-3.005,-3.0032,-3.0031,-3.0037,-3.0046,-3.0044,-3.0048,-3.0056,-3.0061,-3.005,-3.0054,-3.0062,-3.0053,-3.0063,-3.0061,-3.006,-3.0009,-3.0003,-3.007,-3.007,-3.007,-3.007,-3.007,-3.007,-3.008,-3.0099,-3.0089,-3.0107,-3.0101,-3.0111,-3.0112,-3.0111,-3.0109,-3.0119,-3.0123,-3.0116,-3.0109,-3.0112,-3.0115,-3.0112,-3.0113,-3.0126,-3.012,-3.0072,-3.0064,-3.0057,-3.0051,-3.0127,-3.0127,-3.017,-3.017,-3.0171]}]]